IRIDIUM 180

Last updated on Sun Jun 21 2026 00:03:14 GMT+0000 (Coordinated Universal Time)

1 43922U 19002A 26171.41507994 .00000102 00000+0 29462-4 0 9997 2 43922 86.3972 352.2478 0002259 89.2789 270.8666 14.34217731389456
UTC large
Height (km)
Speed (km/s)
/
Latitude / Longitude
Inclination (degrees)
Orbital Period (minutes)
Azimuth
Elevation
Range (km)
Doppler Factor

Next 0 passes for location: London (51.5072 / 0.1276)

No passes found over London.
IRIDIUM 180